Simultaneous Nadir Overpasses (SNOs) Predictions

Prediction of SNOs between AQUA and NOAA-19 Satellite Orbit:

Table of predicted SNOs for the next 14.0 days since TLE Epoch: 1/23/2022
Index Date (AQUA) Time (AQUA) Lat,Lon (AQUA) SZA (AQUA ) Date (NOAA-19) Time (NOAA-19) Lat,Lon (NOAA-19) SZA (NOAA-19 ) Distance(km) Time Diff (sec)
1 01/24/2022 12:09:04 78.06, -21.06 97.94 01/24/2022 12:08:54 78.07, -21.07 97.96 1.65 10
2 01/24/2022 12:58:36 -78.31, 145.37 81.74 01/24/2022 12:59:44 -78.33, 147.73 81.92 53.21 68
3 01/26/2022 17:42:46 -78.04, 75.61 82.63 01/26/2022 17:41:54 -78.05, 75.61 82.61 0.70 52
4 01/26/2022 18:32:14 78.09,-116.99 97.43 01/26/2022 18:32:57 78.07,-117.01 97.40 2.24 43
5 01/29/2022 00:05:56 -78.08, -20.35 83.16 01/29/2022 00:05:56 -78.07, -20.20 83.19 3.64 0
6 01/31/2022 05:39:38 78.05, 76.36 96.20 01/31/2022 05:39:03 78.05, 76.52 96.20 3.56 35
7 01/31/2022 06:29:05 -78.08,-116.15 83.77 01/31/2022 06:29:58 -78.09,-116.02 83.79 2.86 53
8 02/02/2022 11:13:18 -77.96, 173.35 84.54 02/02/2022 11:12:06 -77.87, 172.32 84.53 26.14 72
9 02/02/2022 12:02:47 78.06, -19.48 95.58 02/02/2022 12:03:06 78.04, -19.49 95.55 2.80 19
10 02/04/2022 17:36:28 -78.03, 77.27 85.13 02/04/2022 17:36:04 -78.04, 77.34 85.11 1.96 24



Historial Predications of SNOs between AQUA and NOAA-19
